Year,Month,Day,Hour,Minute,Value (Times are PST for temperature in C)
2010,01,19,00,00,8.30
2010,01,19,00,01,8.30
2010,01,19,00,02,8.40
2010,01,19,00,03,8.40
2010,01,19,00,04,8.40
2010,01,19,00,05,8.40
2010,01,19,00,06,8.40
2010,01,19,00,07,8.40
2010,01,19,00,08,8.40
2010,01,19,00,09,8.40
2010,01,19,00,10,8.40
2010,01,19,00,11,8.40
2010,01,19,00,12,8.40
2010,01,19,00,13,8.40
2010,01,19,00,14,8.40
2010,01,19,00,15,8.40
2010,01,19,00,16,8.40
2010,01,19,00,17,8.40
2010,01,19,00,18,8.40
2010,01,19,00,19,8.40
2010,01,19,00,20,8.40
2010,01,19,00,21,8.40
2010,01,19,00,22,8.50
2010,01,19,00,23,8.50
2010,01,19,00,24,8.50
2010,01,19,00,25,8.50
2010,01,19,00,26,8.60
2010,01,19,00,27,8.60
2010,01,19,00,28,8.60
2010,01,19,00,29,8.60
2010,01,19,00,30,8.60
2010,01,19,00,31,8.60
2010,01,19,00,32,8.60
2010,01,19,00,33,8.60
2010,01,19,00,34,8.60
2010,01,19,00,35,8.70
2010,01,19,00,36,8.70
2010,01,19,00,37,8.70
2010,01,19,00,38,8.70
2010,01,19,00,39,8.70
2010,01,19,00,40,8.60
2010,01,19,00,41,8.60
2010,01,19,00,42,8.60
2010,01,19,00,43,8.60
2010,01,19,00,44,8.60
2010,01,19,00,45,8.50
2010,01,19,00,46,8.50
2010,01,19,00,47,8.50
2010,01,19,00,48,8.40
2010,01,19,00,49,8.40
2010,01,19,00,50,8.40
2010,01,19,00,51,8.40
2010,01,19,00,52,8.40
2010,01,19,00,53,8.40
2010,01,19,00,54,8.40
2010,01,19,00,55,8.40
2010,01,19,00,56,8.40
2010,01,19,00,57,8.30
2010,01,19,00,58,8.30
2010,01,19,00,59,8.40
2010,01,19,01,00,8.40
2010,01,19,01,01,8.40
2010,01,19,01,02,8.40
2010,01,19,01,03,8.40
2010,01,19,01,04,8.30
2010,01,19,01,05,8.30
2010,01,19,01,06,8.30
2010,01,19,01,07,8.30
2010,01,19,01,08,8.30
2010,01,19,01,09,8.30
2010,01,19,01,10,8.30
2010,01,19,01,11,8.30
2010,01,19,01,12,8.30
2010,01,19,01,13,8.30
2010,01,19,01,14,8.30
2010,01,19,01,15,8.30
2010,01,19,01,16,8.30
2010,01,19,01,17,8.20
2010,01,19,01,18,8.20
2010,01,19,01,19,8.30
2010,01,19,01,20,8.30
2010,01,19,01,21,8.30
2010,01,19,01,22,8.30
2010,01,19,01,23,8.30
2010,01,19,01,24,8.30
2010,01,19,01,25,8.30
2010,01,19,01,26,8.30
2010,01,19,01,27,8.30
2010,01,19,01,28,8.20
2010,01,19,01,29,8.20
2010,01,19,01,30,8.20
2010,01,19,01,31,8.20
2010,01,19,01,32,8.20
2010,01,19,01,33,8.20
2010,01,19,01,34,8.20
2010,01,19,01,35,8.20
2010,01,19,01,36,8.20
2010,01,19,01,37,8.30
2010,01,19,01,38,8.30
2010,01,19,01,39,8.20
2010,01,19,01,40,8.20
2010,01,19,01,41,8.20
2010,01,19,01,42,8.20
2010,01,19,01,43,8.20
2010,01,19,01,44,8.20
2010,01,19,01,45,8.20
2010,01,19,01,46,8.20
2010,01,19,01,47,8.20
2010,01,19,01,48,8.20
2010,01,19,01,49,8.20
2010,01,19,01,50,8.20
2010,01,19,01,51,8.20
2010,01,19,01,52,8.20
2010,01,19,01,53,8.20
2010,01,19,01,54,8.20
2010,01,19,01,55,8.20
2010,01,19,01,56,8.20
2010,01,19,01,57,8.20
2010,01,19,01,58,8.20
2010,01,19,01,59,8.20
2010,01,19,02,00,8.20
2010,01,19,02,01,8.20
2010,01,19,02,02,8.20
2010,01,19,02,03,8.20
2010,01,19,02,04,8.20
2010,01,19,02,05,8.20
2010,01,19,02,06,8.20
2010,01,19,02,07,8.20
2010,01,19,02,08,8.20
2010,01,19,02,09,8.20
2010,01,19,02,10,8.20
2010,01,19,02,11,8.20
2010,01,19,02,12,8.20
2010,01,19,02,13,8.30
2010,01,19,02,14,8.30
2010,01,19,02,15,8.30
2010,01,19,02,16,8.40
2010,01,19,02,17,8.40
2010,01,19,02,18,8.40
2010,01,19,02,19,8.40
2010,01,19,02,20,8.40
2010,01,19,02,21,8.30
2010,01,19,02,22,8.30
2010,01,19,02,23,8.30
2010,01,19,02,24,8.30
2010,01,19,02,25,8.30
2010,01,19,02,26,8.30
2010,01,19,02,27,8.30
2010,01,19,02,28,8.20
2010,01,19,02,29,8.20
2010,01,19,02,30,8.20
2010,01,19,02,31,8.20
2010,01,19,02,32,8.20
2010,01,19,02,33,8.20
2010,01,19,02,34,8.20
2010,01,19,02,35,8.10
2010,01,19,02,36,8.10
2010,01,19,02,37,8.10
2010,01,19,02,38,8.10
2010,01,19,02,39,8.10
2010,01,19,02,40,8.10
2010,01,19,02,41,8.10
2010,01,19,02,42,8.10
2010,01,19,02,43,8.10
2010,01,19,02,44,8.10
2010,01,19,02,45,8.10
2010,01,19,02,46,8.10
2010,01,19,02,47,8.10
2010,01,19,02,48,8.10
2010,01,19,02,49,8.00
2010,01,19,02,50,8.00
2010,01,19,02,51,8.00
2010,01,19,02,52,8.00
2010,01,19,02,53,8.00
2010,01,19,02,54,7.90
2010,01,19,02,55,7.90
2010,01,19,02,56,8.00
2010,01,19,02,57,8.00
2010,01,19,02,58,8.00
2010,01,19,02,59,8.00
2010,01,19,03,00,8.00
2010,01,19,03,01,8.10
2010,01,19,03,02,8.10
2010,01,19,03,03,8.20
2010,01,19,03,04,8.20
2010,01,19,03,05,8.20
2010,01,19,03,06,8.20
2010,01,19,03,07,8.20
2010,01,19,03,08,8.30
2010,01,19,03,09,8.30
2010,01,19,03,10,8.30
2010,01,19,03,11,8.30
2010,01,19,03,12,8.30
2010,01,19,03,13,8.30
2010,01,19,03,14,8.30
2010,01,19,03,15,8.30
2010,01,19,03,16,8.30
2010,01,19,03,17,8.30
2010,01,19,03,18,8.30
2010,01,19,03,19,8.30
2010,01,19,03,20,8.30
2010,01,19,03,21,8.30
2010,01,19,03,22,8.30
2010,01,19,03,23,8.30
2010,01,19,03,24,8.30
2010,01,19,03,25,8.20
2010,01,19,03,26,8.20
2010,01,19,03,27,8.20
2010,01,19,03,28,8.20
2010,01,19,03,29,8.20
2010,01,19,03,30,8.20
2010,01,19,03,31,8.20
2010,01,19,03,32,8.10
2010,01,19,03,33,8.10
2010,01,19,03,34,8.10
2010,01,19,03,35,8.00
2010,01,19,03,36,8.00
2010,01,19,03,37,8.00
2010,01,19,03,38,8.00
2010,01,19,03,39,7.90
2010,01,19,03,40,7.90
2010,01,19,03,41,7.90
2010,01,19,03,42,7.90
2010,01,19,03,43,7.90
2010,01,19,03,44,7.90
2010,01,19,03,45,7.90
2010,01,19,03,46,8.00
2010,01,19,03,47,7.90
2010,01,19,03,48,7.90
2010,01,19,03,49,8.00
2010,01,19,03,50,7.90
2010,01,19,03,51,7.90
2010,01,19,03,52,8.00
2010,01,19,03,53,7.90
2010,01,19,03,54,7.90
2010,01,19,03,55,7.90
2010,01,19,03,56,7.90
2010,01,19,03,57,7.90
2010,01,19,03,58,7.90
2010,01,19,03,59,7.90
2010,01,19,04,00,8.00
2010,01,19,04,01,8.00
2010,01,19,04,02,8.00
2010,01,19,04,03,8.00
2010,01,19,04,04,8.00
2010,01,19,04,06,8.00
2010,01,19,04,07,8.00
2010,01,19,04,08,8.10
2010,01,19,04,09,8.10
2010,01,19,04,10,8.10
2010,01,19,04,11,8.10
2010,01,19,04,12,8.20
2010,01,19,04,13,8.10
2010,01,19,04,14,8.10
2010,01,19,04,15,8.10
2010,01,19,04,16,8.10
2010,01,19,04,17,8.10
2010,01,19,04,18,8.10
2010,01,19,04,19,8.00
2010,01,19,04,20,8.00
2010,01,19,04,21,8.00
2010,01,19,04,22,7.90
2010,01,19,04,23,7.90
2010,01,19,04,24,7.90
2010,01,19,04,25,7.90
2010,01,19,04,26,7.80
2010,01,19,04,27,7.80
2010,01,19,04,28,7.80
2010,01,19,04,29,7.80
2010,01,19,04,30,7.80
2010,01,19,04,31,7.80
2010,01,19,04,32,7.80
2010,01,19,04,33,7.70
2010,01,19,04,34,7.70
2010,01,19,04,35,7.70
2010,01,19,04,36,7.70
2010,01,19,04,37,7.70
2010,01,19,04,38,7.70
2010,01,19,04,39,7.70
2010,01,19,04,40,7.70
2010,01,19,04,41,7.60
2010,01,19,04,42,7.60
2010,01,19,04,43,7.60
2010,01,19,04,44,7.60
2010,01,19,04,45,7.60
2010,01,19,04,46,7.60
2010,01,19,04,47,7.60
2010,01,19,04,48,7.60
2010,01,19,04,49,7.60
2010,01,19,04,50,7.60
2010,01,19,04,51,7.60
2010,01,19,04,52,7.60
2010,01,19,04,53,7.60
2010,01,19,04,54,7.60
2010,01,19,04,55,7.60
2010,01,19,04,56,7.60
2010,01,19,04,57,7.60
2010,01,19,04,58,7.60
2010,01,19,04,59,7.60
2010,01,19,05,00,7.50
2010,01,19,05,01,7.40
2010,01,19,05,02,7.40
2010,01,19,05,03,7.40
2010,01,19,05,04,7.30
2010,01,19,05,05,7.30
2010,01,19,05,06,7.20
2010,01,19,05,07,7.20
2010,01,19,05,08,7.20
2010,01,19,05,09,7.20
2010,01,19,05,10,7.20
2010,01,19,05,11,7.20
2010,01,19,05,12,7.20
2010,01,19,05,13,7.20
2010,01,19,05,14,7.20
2010,01,19,05,15,7.10
2010,01,19,05,16,7.10
2010,01,19,05,17,7.10
2010,01,19,05,18,7.10
2010,01,19,05,19,7.00
2010,01,19,05,20,7.00
2010,01,19,05,21,7.00
2010,01,19,05,22,7.00
2010,01,19,05,23,7.00
2010,01,19,05,24,7.00
2010,01,19,05,25,7.10
2010,01,19,05,26,7.00
2010,01,19,05,27,7.00
2010,01,19,05,28,7.00
2010,01,19,05,29,7.10
2010,01,19,05,30,7.10
2010,01,19,05,31,7.20
2010,01,19,05,32,7.20
2010,01,19,05,33,7.20
2010,01,19,05,34,7.20
2010,01,19,05,35,7.30
2010,01,19,05,36,7.30
2010,01,19,05,37,7.30
2010,01,19,05,38,7.20
2010,01,19,05,39,7.20
2010,01,19,05,40,7.20
2010,01,19,05,41,7.10
2010,01,19,05,42,7.00
2010,01,19,05,43,6.90
2010,01,19,05,44,6.90
2010,01,19,05,45,6.80
2010,01,19,05,46,6.80
2010,01,19,05,47,6.80
2010,01,19,05,48,6.70
2010,01,19,05,49,6.70
2010,01,19,05,50,6.70
2010,01,19,05,51,6.60
2010,01,19,05,52,6.60
2010,01,19,05,53,6.50
2010,01,19,05,54,6.50
2010,01,19,05,55,6.40
2010,01,19,05,56,6.40
2010,01,19,05,57,6.40
2010,01,19,05,58,6.30
2010,01,19,05,59,6.30
2010,01,19,06,00,6.20
2010,01,19,06,01,6.20
2010,01,19,06,02,6.20
2010,01,19,06,03,6.20
2010,01,19,06,04,6.10
2010,01,19,06,05,6.10
2010,01,19,06,06,6.10
2010,01,19,06,07,6.10
2010,01,19,06,08,6.00
2010,01,19,06,09,6.00
2010,01,19,06,10,6.00
2010,01,19,06,11,5.90
2010,01,19,06,12,5.90
2010,01,19,06,13,5.90
2010,01,19,06,14,5.90
2010,01,19,06,15,5.90
2010,01,19,06,16,5.80
2010,01,19,06,17,5.80
2010,01,19,06,18,5.80
2010,01,19,06,19,5.80
2010,01,19,06,20,5.80
2010,01,19,06,21,5.80
2010,01,19,06,22,5.80
2010,01,19,06,23,5.80
2010,01,19,06,24,5.80
2010,01,19,06,25,5.70
2010,01,19,06,26,5.70
2010,01,19,06,27,5.70
2010,01,19,06,28,5.70
2010,01,19,06,29,5.70
2010,01,19,06,30,5.70
2010,01,19,06,31,5.60
2010,01,19,06,32,5.60
2010,01,19,06,33,5.60
2010,01,19,06,34,5.60
2010,01,19,06,35,5.50
2010,01,19,06,36,5.50
2010,01,19,06,37,5.40
2010,01,19,06,38,5.40
2010,01,19,06,39,5.40
2010,01,19,06,40,5.30
2010,01,19,06,41,5.30
2010,01,19,06,42,5.30
2010,01,19,06,43,5.30
2010,01,19,06,44,5.20
2010,01,19,06,45,5.20
2010,01,19,06,46,5.20
2010,01,19,06,47,5.10
2010,01,19,06,48,5.10
2010,01,19,06,49,5.10
2010,01,19,06,50,5.10
2010,01,19,06,51,5.10
2010,01,19,06,52,5.20
2010,01,19,06,53,5.20
2010,01,19,06,54,5.20
2010,01,19,06,55,5.20
2010,01,19,06,56,5.20
2010,01,19,06,57,5.20
2010,01,19,06,58,5.20
2010,01,19,06,59,5.20
2010,01,19,07,00,5.30
2010,01,19,07,01,5.30
2010,01,19,07,02,5.30
2010,01,19,07,03,5.30
2010,01,19,07,04,5.40
2010,01,19,07,05,5.50
2010,01,19,07,06,5.50
2010,01,19,07,07,5.60
2010,01,19,07,08,5.60
2010,01,19,07,09,5.60
2010,01,19,07,10,5.60
2010,01,19,07,11,5.60
2010,01,19,07,12,5.50
2010,01,19,07,13,5.50
2010,01,19,07,14,5.50
2010,01,19,07,15,5.50
2010,01,19,07,16,5.40
2010,01,19,07,17,5.40
2010,01,19,07,18,5.40
2010,01,19,07,19,5.40
2010,01,19,07,20,5.40
2010,01,19,07,21,5.40
2010,01,19,07,22,5.30
2010,01,19,07,23,5.30
2010,01,19,07,24,5.20
2010,01,19,07,25,5.20
2010,01,19,07,26,5.20
2010,01,19,07,27,5.10
2010,01,19,07,28,5.10
2010,01,19,07,29,5.00
2010,01,19,07,30,5.00
2010,01,19,07,31,4.90
2010,01,19,07,32,4.90
2010,01,19,07,33,4.90
2010,01,19,07,34,4.90
2010,01,19,07,35,4.80
2010,01,19,07,36,4.80
2010,01,19,07,37,4.80
2010,01,19,07,38,4.80
2010,01,19,07,39,4.80
2010,01,19,07,40,4.80
2010,01,19,07,41,4.80
2010,01,19,07,42,4.80
2010,01,19,07,43,4.80
2010,01,19,07,44,4.80
2010,01,19,07,45,4.70
2010,01,19,07,46,4.70
2010,01,19,07,47,4.70
2010,01,19,07,48,4.70
2010,01,19,07,49,4.60
2010,01,19,07,50,4.60
2010,01,19,07,51,4.60
2010,01,19,07,52,4.60
2010,01,19,07,53,4.60
2010,01,19,07,54,4.60
2010,01,19,07,55,4.60
2010,01,19,07,56,4.60
2010,01,19,07,57,4.60
2010,01,19,07,58,4.50
2010,01,19,07,59,4.50
2010,01,19,08,00,4.50
2010,01,19,08,01,4.50
2010,01,19,08,02,4.50
2010,01,19,08,03,4.50
2010,01,19,08,04,4.50
2010,01,19,08,05,4.50
2010,01,19,08,06,4.50
2010,01,19,08,07,4.50
2010,01,19,08,08,4.50
2010,01,19,08,09,4.50
2010,01,19,08,10,4.60
2010,01,19,08,11,4.60
2010,01,19,08,12,4.60
2010,01,19,08,13,4.60
2010,01,19,08,14,4.60
2010,01,19,08,15,4.50
2010,01,19,08,16,4.50
2010,01,19,08,17,4.50
2010,01,19,08,18,4.50
2010,01,19,08,19,4.50
2010,01,19,08,20,4.50
2010,01,19,08,21,4.50
2010,01,19,08,22,4.60
2010,01,19,08,23,4.60
2010,01,19,08,24,4.60
2010,01,19,08,25,4.70
2010,01,19,08,26,4.70
2010,01,19,08,27,4.70
2010,01,19,08,28,4.70
2010,01,19,08,29,4.80
2010,01,19,08,30,4.80
2010,01,19,08,31,4.90
2010,01,19,08,32,4.90
2010,01,19,08,33,4.90
2010,01,19,08,34,4.90
2010,01,19,08,35,4.90
2010,01,19,08,36,4.90
2010,01,19,08,37,4.90
2010,01,19,08,38,4.90
2010,01,19,08,39,4.90
2010,01,19,08,40,4.90
2010,01,19,08,41,4.90
2010,01,19,08,42,4.90
2010,01,19,08,43,4.90
2010,01,19,08,44,5.00
2010,01,19,08,45,5.00
2010,01,19,08,46,5.00
2010,01,19,08,47,5.00
2010,01,19,08,48,5.10
2010,01,19,08,49,5.10
2010,01,19,08,50,5.10
2010,01,19,08,51,5.10
2010,01,19,08,52,5.10
2010,01,19,08,53,5.10
2010,01,19,08,54,5.10
2010,01,19,08,55,5.10
2010,01,19,08,56,5.10
2010,01,19,08,57,5.10
2010,01,19,08,58,5.10
2010,01,19,08,59,5.10
2010,01,19,09,00,5.10
2010,01,19,09,01,5.10
2010,01,19,09,02,5.10
2010,01,19,09,03,5.10
2010,01,19,09,04,5.10
2010,01,19,09,05,5.10
2010,01,19,09,06,5.20
2010,01,19,09,07,5.20
2010,01,19,09,08,5.20
2010,01,19,09,09,5.20
2010,01,19,09,10,5.20
2010,01,19,09,11,5.20
2010,01,19,09,12,5.30
2010,01,19,09,13,5.30
2010,01,19,09,14,5.30
2010,01,19,09,15,5.30
2010,01,19,09,16,5.30
2010,01,19,09,17,5.30
2010,01,19,09,18,5.40
2010,01,19,09,19,5.40
2010,01,19,09,20,5.40
2010,01,19,09,21,5.40
2010,01,19,09,22,5.40
2010,01,19,09,23,5.40
2010,01,19,09,24,5.50
2010,01,19,09,25,5.50
2010,01,19,09,26,5.50
2010,01,19,09,27,5.60
2010,01,19,09,28,5.60
2010,01,19,09,29,5.70
2010,01,19,09,30,5.80
2010,01,19,09,31,5.80
2010,01,19,09,32,5.90
2010,01,19,09,33,5.90
2010,01,19,09,34,6.00
2010,01,19,09,35,6.10
2010,01,19,09,36,6.30
2010,01,19,09,37,6.40
2010,01,19,09,38,6.50
2010,01,19,09,39,6.50
2010,01,19,09,40,6.60
2010,01,19,09,41,6.60
2010,01,19,09,42,6.60
2010,01,19,09,43,6.60
2010,01,19,09,44,6.70
2010,01,19,09,45,6.70
2010,01,19,09,46,6.70
2010,01,19,09,47,6.70
2010,01,19,09,48,6.70
2010,01,19,09,49,6.70
2010,01,19,09,50,6.70
2010,01,19,09,51,6.70
2010,01,19,09,52,6.70
2010,01,19,09,53,6.70
2010,01,19,09,54,6.70
2010,01,19,09,55,6.70
2010,01,19,09,56,6.60
2010,01,19,09,57,6.60
2010,01,19,09,58,6.60
2010,01,19,09,59,6.60
2010,01,19,10,00,6.60
2010,01,19,10,01,6.60
2010,01,19,10,02,6.60
2010,01,19,10,03,6.60
2010,01,19,10,04,6.60
2010,01,19,10,05,6.60
2010,01,19,10,06,6.60
2010,01,19,10,07,6.60
2010,01,19,10,08,6.60
2010,01,19,10,09,6.60
2010,01,19,10,10,6.60
2010,01,19,10,11,6.60
2010,01,19,10,12,6.60
2010,01,19,10,13,6.70
2010,01,19,10,14,6.70
2010,01,19,10,15,6.70
2010,01,19,10,16,6.70
2010,01,19,10,17,6.70
2010,01,19,10,18,6.70
2010,01,19,10,19,6.70
2010,01,19,10,20,6.80
2010,01,19,10,21,6.80
2010,01,19,10,22,6.80
2010,01,19,10,23,6.80
2010,01,19,10,24,6.80
2010,01,19,10,25,6.80
2010,01,19,10,26,6.80
2010,01,19,10,27,6.90
2010,01,19,10,28,6.90
2010,01,19,10,29,6.90
2010,01,19,10,30,6.90
2010,01,19,10,31,7.00
2010,01,19,10,32,7.00
2010,01,19,10,33,7.00
2010,01,19,10,34,7.10
2010,01,19,10,35,7.10
2010,01,19,10,36,7.20
2010,01,19,10,37,7.20
2010,01,19,10,38,7.20
2010,01,19,10,39,7.30
2010,01,19,10,40,7.30
2010,01,19,10,41,7.40
2010,01,19,10,42,7.40
2010,01,19,10,43,7.40
2010,01,19,10,44,7.50
2010,01,19,10,45,7.50
2010,01,19,10,46,7.60
2010,01,19,10,47,7.60
2010,01,19,10,48,7.70
2010,01,19,10,49,7.70
2010,01,19,10,50,7.70
2010,01,19,10,51,7.70
2010,01,19,10,52,7.70
2010,01,19,10,53,7.70
2010,01,19,10,54,7.70
2010,01,19,10,55,7.70
2010,01,19,10,56,7.70
2010,01,19,10,57,7.70
2010,01,19,10,58,7.80
2010,01,19,10,59,7.80
2010,01,19,11,00,7.90
2010,01,19,11,01,7.90
2010,01,19,11,02,8.00
2010,01,19,11,03,8.00
2010,01,19,11,04,8.00
2010,01,19,11,05,8.10
2010,01,19,11,06,8.10
2010,01,19,11,07,8.10
2010,01,19,11,08,8.10
2010,01,19,11,09,8.10
2010,01,19,11,10,8.10
2010,01,19,11,11,8.10
2010,01,19,11,12,8.10
2010,01,19,11,13,8.20
2010,01,19,11,14,8.20
2010,01,19,11,15,8.20
2010,01,19,11,16,8.20
2010,01,19,11,17,8.20
2010,01,19,11,18,8.20
2010,01,19,11,19,8.30
2010,01,19,11,20,8.30
2010,01,19,11,21,8.30
2010,01,19,11,22,8.30
2010,01,19,11,23,8.30
2010,01,19,11,24,8.20
2010,01,19,11,25,8.20
2010,01,19,11,26,8.20
2010,01,19,11,27,8.10
2010,01,19,11,28,8.10
2010,01,19,11,29,8.00
2010,01,19,11,30,8.00
2010,01,19,11,31,7.90
2010,01,19,11,32,7.90
2010,01,19,11,33,7.90
2010,01,19,11,34,7.90
2010,01,19,11,35,7.90
2010,01,19,11,36,8.00
2010,01,19,11,37,8.00
2010,01,19,11,38,8.10
2010,01,19,11,39,8.10
2010,01,19,11,40,8.10
2010,01,19,11,41,8.10
2010,01,19,11,42,8.10
2010,01,19,11,43,8.10
2010,01,19,11,44,8.10
2010,01,19,11,45,8.10
2010,01,19,11,46,8.10
2010,01,19,11,47,8.10
2010,01,19,11,48,8.10
2010,01,19,11,49,8.10
2010,01,19,11,50,8.10
2010,01,19,11,51,8.10
2010,01,19,11,52,8.10
2010,01,19,11,53,8.20
2010,01,19,11,54,8.20
2010,01,19,11,55,8.20
2010,01,19,11,56,8.20
2010,01,19,11,57,8.20
2010,01,19,11,58,8.20
2010,01,19,11,59,8.20
2010,01,19,12,00,8.20
2010,01,19,12,01,8.20
2010,01,19,12,02,8.20
2010,01,19,12,03,8.30
2010,01,19,12,04,8.30
2010,01,19,12,05,8.40
2010,01,19,12,06,8.50
2010,01,19,12,07,8.50
2010,01,19,12,08,8.60
2010,01,19,12,09,8.60
2010,01,19,12,10,8.70
2010,01,19,12,11,8.70
2010,01,19,12,12,8.80
2010,01,19,12,13,8.80
2010,01,19,12,14,8.90
2010,01,19,12,15,9.00
2010,01,19,12,16,9.30
2010,01,19,12,17,9.60
2010,01,19,12,18,9.90
2010,01,19,12,19,10.10
2010,01,19,12,20,10.40
2010,01,19,12,21,10.70
2010,01,19,12,22,10.90
2010,01,19,12,23,11.10
2010,01,19,12,24,11.30
2010,01,19,12,25,11.40
2010,01,19,12,26,11.40
2010,01,19,12,27,11.30
2010,01,19,12,28,11.20
2010,01,19,12,29,11.10
2010,01,19,12,30,11.00
2010,01,19,12,31,11.00
2010,01,19,12,32,10.90
2010,01,19,12,33,10.90
2010,01,19,12,34,10.80
2010,01,19,12,35,10.70
2010,01,19,12,36,10.60
2010,01,19,12,37,10.60
2010,01,19,12,38,10.60
2010,01,19,12,39,10.60
2010,01,19,12,40,10.50
2010,01,19,12,41,10.50
2010,01,19,12,42,10.50
2010,01,19,12,43,10.50
2010,01,19,12,44,10.40
2010,01,19,12,45,10.40
2010,01,19,12,46,10.30
2010,01,19,12,47,10.30
2010,01,19,12,48,10.20
2010,01,19,12,49,10.10
2010,01,19,12,50,10.10
2010,01,19,12,51,10.10
2010,01,19,12,52,10.10
2010,01,19,12,53,10.00
2010,01,19,12,54,10.00
2010,01,19,12,55,10.00
2010,01,19,12,56,9.90
2010,01,19,12,57,9.90
2010,01,19,12,58,9.80
2010,01,19,12,59,9.80
2010,01,19,13,00,9.80
2010,01,19,13,01,9.80
2010,01,19,13,02,9.70
2010,01,19,13,03,9.70
2010,01,19,13,04,9.70
2010,01,19,13,05,10.00
2010,01,19,13,06,10.20
2010,01,19,13,07,10.50
2010,01,19,13,08,10.80
2010,01,19,13,09,11.10
2010,01,19,13,10,11.30
2010,01,19,13,11,11.60
2010,01,19,13,12,11.80
2010,01,19,13,13,11.90
2010,01,19,13,14,12.00
2010,01,19,13,15,12.00
2010,01,19,13,16,12.10
2010,01,19,13,17,12.20
2010,01,19,13,18,12.20
2010,01,19,13,19,12.20
2010,01,19,13,20,12.20
2010,01,19,13,21,12.20
2010,01,19,13,22,12.20
2010,01,19,13,23,12.20
2010,01,19,13,24,12.20
2010,01,19,13,25,12.20
2010,01,19,13,26,12.20
2010,01,19,13,27,12.20
2010,01,19,13,28,12.20
2010,01,19,13,29,12.10
2010,01,19,13,30,12.10
2010,01,19,13,31,11.90
2010,01,19,13,32,11.80
2010,01,19,13,33,11.70
2010,01,19,13,34,11.70
2010,01,19,13,35,11.70
2010,01,19,13,36,11.60
2010,01,19,13,37,11.60
2010,01,19,13,38,11.70
2010,01,19,13,39,11.70
2010,01,19,13,40,11.80
2010,01,19,13,41,11.80
2010,01,19,13,42,11.70
2010,01,19,13,43,11.50
2010,01,19,13,44,11.40
2010,01,19,13,45,11.20
2010,01,19,13,46,11.10
2010,01,19,13,47,11.00
2010,01,19,13,48,10.80
2010,01,19,13,49,10.70
2010,01,19,13,50,10.70
2010,01,19,13,51,10.70
2010,01,19,13,52,10.70
2010,01,19,13,53,10.70
2010,01,19,13,54,10.80
2010,01,19,13,55,10.80
2010,01,19,13,56,11.00
2010,01,19,13,57,11.10
2010,01,19,13,58,11.20
2010,01,19,13,59,11.20
2010,01,19,14,00,11.30
2010,01,19,14,01,11.40
2010,01,19,14,02,11.40
2010,01,19,14,03,11.50
2010,01,19,14,04,11.60
2010,01,19,14,05,11.60
2010,01,19,14,06,11.70
2010,01,19,14,07,11.70
2010,01,19,14,08,11.80
2010,01,19,14,09,11.80
2010,01,19,14,10,11.90
2010,01,19,14,11,11.90
2010,01,19,14,12,12.00
2010,01,19,14,13,12.00
2010,01,19,14,14,12.00
2010,01,19,14,15,12.00
2010,01,19,14,16,11.90
2010,01,19,14,17,11.90
2010,01,19,14,18,11.90
2010,01,19,14,19,11.90
2010,01,19,14,20,12.00
2010,01,19,14,21,12.00
2010,01,19,14,22,12.10
2010,01,19,14,23,12.10
2010,01,19,14,24,12.10
2010,01,19,14,25,12.10
2010,01,19,14,26,12.10
2010,01,19,14,27,12.10
2010,01,19,14,28,12.10
2010,01,19,14,29,12.10
2010,01,19,14,30,12.10
2010,01,19,14,31,12.20
2010,01,19,14,32,12.20
2010,01,19,14,33,12.20
2010,01,19,14,34,12.30
2010,01,19,14,35,12.30
2010,01,19,14,36,12.30
2010,01,19,14,37,12.30
2010,01,19,14,38,12.20
2010,01,19,14,39,12.00
2010,01,19,14,40,11.70
2010,01,19,14,41,11.70
2010,01,19,14,42,11.60
2010,01,19,14,43,11.60
2010,01,19,14,44,11.50
2010,01,19,14,45,11.40
2010,01,19,14,46,11.40
2010,01,19,14,47,11.30
2010,01,19,14,48,11.40
2010,01,19,14,49,11.50
2010,01,19,14,50,11.60
2010,01,19,14,51,11.70
2010,01,19,14,52,11.70
2010,01,19,14,53,11.80
2010,01,19,14,54,11.80
2010,01,19,14,55,11.90
2010,01,19,14,56,12.00
2010,01,19,14,57,12.00
2010,01,19,14,58,12.10
2010,01,19,14,59,12.10
2010,01,19,15,00,12.20
2010,01,19,15,01,12.20
2010,01,19,15,02,12.20
2010,01,19,15,03,12.20
2010,01,19,15,04,12.20
2010,01,19,15,05,12.20
2010,01,19,15,06,12.20
2010,01,19,15,07,12.20
2010,01,19,15,08,12.10
2010,01,19,15,09,12.10
2010,01,19,15,10,12.10
2010,01,19,15,11,12.10
2010,01,19,15,12,12.10
2010,01,19,15,13,12.00
2010,01,19,15,14,11.80
2010,01,19,15,15,11.80
2010,01,19,15,16,11.70
2010,01,19,15,17,11.60
2010,01,19,15,18,11.60
2010,01,19,15,19,11.50
2010,01,19,15,20,11.50
2010,01,19,15,21,11.40
2010,01,19,15,22,11.30
2010,01,19,15,23,11.20
2010,01,19,15,24,11.10
2010,01,19,15,25,11.00
2010,01,19,15,26,10.90
2010,01,19,15,27,10.80
2010,01,19,15,28,10.80
2010,01,19,15,29,10.70
2010,01,19,15,30,10.70
2010,01,19,15,31,10.80
2010,01,19,15,32,10.90
2010,01,19,15,33,10.90
2010,01,19,15,34,10.80
2010,01,19,15,35,10.80
2010,01,19,15,36,10.70
2010,01,19,15,37,10.50
2010,01,19,15,38,10.50
2010,01,19,15,39,10.40
2010,01,19,15,40,10.30
2010,01,19,15,41,10.20
2010,01,19,15,42,10.10
2010,01,19,15,43,10.00
2010,01,19,15,44,9.90
2010,01,19,15,45,9.90
2010,01,19,15,46,9.80
2010,01,19,15,47,9.80
2010,01,19,15,48,9.70
2010,01,19,15,49,9.70
2010,01,19,15,50,9.60
2010,01,19,15,51,9.70
2010,01,19,15,52,9.60
2010,01,19,15,53,9.60
2010,01,19,15,54,9.60
2010,01,19,15,55,9.60
2010,01,19,15,56,9.60
2010,01,19,15,57,9.60
2010,01,19,15,58,9.60
2010,01,19,15,59,9.60
2010,01,19,16,00,9.60
2010,01,19,16,01,9.60
2010,01,19,16,02,9.60
2010,01,19,16,03,9.70
2010,01,19,16,04,9.70
2010,01,19,16,05,9.80
2010,01,19,16,06,9.80
2010,01,19,16,07,9.80
2010,01,19,16,08,9.70
2010,01,19,16,09,9.70
2010,01,19,16,10,9.60
2010,01,19,16,11,9.60
2010,01,19,16,12,9.50
2010,01,19,16,13,9.50
2010,01,19,16,14,9.40
2010,01,19,16,15,9.30
2010,01,19,16,16,9.30
2010,01,19,16,17,9.20
2010,01,19,16,18,9.10
2010,01,19,16,19,9.10
2010,01,19,16,20,9.00
2010,01,19,16,21,9.00
2010,01,19,16,22,8.90
2010,01,19,16,23,8.90
2010,01,19,16,24,8.90
2010,01,19,16,25,8.90
2010,01,19,16,26,8.80
2010,01,19,16,27,8.80
2010,01,19,16,28,8.80
2010,01,19,16,29,8.70
2010,01,19,16,30,8.70
2010,01,19,16,31,8.70
2010,01,19,16,32,8.60
2010,01,19,16,33,8.60
2010,01,19,16,34,8.60
2010,01,19,16,35,8.50
2010,01,19,16,36,8.50
2010,01,19,16,37,8.50
2010,01,19,16,38,8.40
2010,01,19,16,39,8.40
2010,01,19,16,40,8.40
2010,01,19,16,41,8.40
2010,01,19,16,42,8.40
2010,01,19,16,43,8.40
2010,01,19,16,44,8.40
2010,01,19,16,45,8.40
2010,01,19,16,46,8.40
2010,01,19,16,47,8.40
2010,01,19,16,48,8.40
2010,01,19,16,49,8.40
2010,01,19,16,50,8.40
2010,01,19,16,51,8.40
2010,01,19,16,52,8.40
2010,01,19,16,53,8.40
2010,01,19,16,54,8.30
2010,01,19,16,55,8.30
2010,01,19,16,56,8.30
2010,01,19,16,57,8.20
2010,01,19,16,58,8.20
2010,01,19,16,59,8.20
2010,01,19,17,00,8.20
2010,01,19,17,01,8.10
2010,01,19,17,02,8.10
2010,01,19,17,03,8.10
2010,01,19,17,04,8.10
2010,01,19,17,05,8.10
2010,01,19,17,06,8.00
2010,01,19,17,07,8.00
2010,01,19,17,08,8.00
2010,01,19,17,09,8.00
2010,01,19,17,10,7.90
2010,01,19,17,11,7.90
2010,01,19,17,12,7.90
2010,01,19,17,13,7.80
2010,01,19,17,14,7.80
2010,01,19,17,15,7.80
2010,01,19,17,16,7.80
2010,01,19,17,17,7.80
2010,01,19,17,18,7.80
2010,01,19,17,19,7.70
2010,01,19,17,20,7.70
2010,01,19,17,21,7.70
2010,01,19,17,22,7.70
2010,01,19,17,23,7.70
2010,01,19,17,24,7.60
2010,01,19,17,25,7.60
2010,01,19,17,26,7.60
2010,01,19,17,27,7.60
2010,01,19,17,28,7.50
2010,01,19,17,29,7.50
2010,01,19,17,30,7.50
2010,01,19,17,31,7.50
2010,01,19,17,32,7.50
2010,01,19,17,33,7.50
2010,01,19,17,34,7.50
2010,01,19,17,35,7.50
2010,01,19,17,36,7.50
2010,01,19,17,37,7.50
2010,01,19,17,38,7.50
2010,01,19,17,39,7.50
2010,01,19,17,40,7.60
2010,01,19,17,41,7.60
2010,01,19,17,42,7.60
2010,01,19,17,43,7.60
2010,01,19,17,44,7.60
2010,01,19,17,45,7.60
2010,01,19,17,46,7.50
2010,01,19,17,47,7.50
2010,01,19,17,48,7.50
2010,01,19,17,49,7.50
2010,01,19,17,50,7.50
2010,01,19,17,51,7.40
2010,01,19,17,52,7.40
2010,01,19,17,53,7.40
2010,01,19,17,54,7.40
2010,01,19,17,55,7.40
2010,01,19,17,56,7.40
2010,01,19,17,57,7.40
2010,01,19,17,58,7.40